EW0532 Weather Reports


time (UTC)temp
F
wind
direction
speed
knots
gust
knots
rain 1hr
in
rain 24hr
in
rain mn
in
humidity
%
barometer
mb
20260505224007 80 190 3.5 13.9 0.00 0.00 0.00 29 1008.7
20260505223514 81 178 5.2 13.9 0.00 0.00 0.00 29 1008.7
20260505223021 81 205 0.9 8.7 0.00 0.00 0.00 29 1008.5
20260505222506 81 207 3.5 13.9 0.00 0.00 0.00 29 1008.4
20260505222013 81 183 4.3 13.9 0.00 0.00 0.00 28 1008.6
20260505221524 81 300 3.5 13.0 0.00 0.00 0.00 28 1008.4
20260505221006 82 188 5.2 11.3 0.00 0.00 0.00 28 1008.6
20260505220507 82 178 3.5 10.4 0.00 0.00 0.00 30 1008.2
20260505220023 81 188 2.6 12.2 0.00 0.00 0.00 30 1008.3
20260505215510 81 166 4.3 17.4 0.00 0.00 0.00 30 1008.4
20260505215006 81 162 6.1 17.4 0.00 0.00 0.00 30 1008.3
20260505214513 81 178 5.2 13.0 0.00 0.00 0.00 29 1008.3
20260505214008 82 209 5.2 13.0 0.00 0.00 0.00 29 1008.2
20260505213506 82 192 3.5 11.3 0.00 0.00 0.00 29 1008.0
20260505213018 82 183 4.3 15.6 0.00 0.00 0.00 29 1007.9
20260505212507 82 232 5.2 16.5 0.00 0.00 0.00 30 1008.0
20260505212011 83 190 6.1 16.5 0.00 0.00 0.00 30 1007.8
20260505211514 83 187 1.7 11.3 0.00 0.00 0.00 32 1007.9
20260505211007 82 351 3.5 13.9 0.00 0.00 0.00 31 1007.9
20260505210511 83 188 3.5 13.9 0.00 0.00 0.00 30 1007.9
20260505210029 83 135 1.7 16.5 0.00 0.00 0.00 31 1007.9
20260505205512 83 189 1.7 16.5 0.00 0.00 0.00 29 1007.8
20260505205014 83 215 4.3 14.8 0.00 0.00 0.00 29 1008.2
20260505204509 83 163 6.1 14.8 0.00 0.00 0.00 28 1008.0
20260505204003 83 199 3.5 15.6 0.00 0.00 0.00 27 1008.1
20260505203502 83 213 4.3 15.6 0.00 0.00 0.00 30 1008.1
20260505203005 83 145 3.5 19.1 0.00 0.00 0.00 30 1008.1
20260505202508 83 170 7.0 20.0 0.00 0.00 0.00 29 1007.9
20260505202011 83 315 3.5 20.0 0.00 0.00 0.00 31 1008.0
20260505201504 83 125 5.2 20.0 0.00 0.00 0.00 29 1008.1
20260505201005 83 316 5.2 19.1 0.00 0.00 0.00 28 1008.2
20260505200504 83 52 5.2 14.8 0.00 0.00 0.00 29 1008.1
20260505200002 83 53 4.3 22.6 0.00 0.00 0.00 31 1008.0
20260505195501 83 153 1.7 22.6 0.00 0.00 0.00 32 1008.0
20260505195002 83 186 6.1 19.1 0.00 0.00 0.00 31 1008.0
20260505194513 83 209 4.3 19.1 0.00 0.00 0.00 32 1007.9
20260505194006 83 175 5.2 19.1 0.00 0.00 0.00 32 1008.1
20260505193503 83 191 6.1 20.0 0.00 0.00 0.00 31 1008.3
20260505193013 83 180 7.8 20.0 0.00 0.00 0.00 31 1008.1
20260505192506 83 163 4.3 13.9 0.00 0.00 0.00 29 1008.3
20260505192005 83 206 4.3 20.0 0.00 0.00 0.00 31 1008.3
20260505191511 83 290 6.1 20.0 0.00 0.00 0.00 30 1008.4
20260505191012 83 200 7.0 16.5 0.00 0.00 0.00 31 1008.6
20260505190503 82 5 5.2 18.2 0.00 0.00 0.00 34 1008.6
20260505190006 82 194 8.7 18.2 0.00 0.00 0.00 32 1008.6
20260505185503 83 213 5.2 13.9 0.00 0.00 0.00 31 1008.7
20260505185005 83 148 7.8 18.2 0.00 0.00 0.00 31 1008.9
20260505184506 83 171 4.3 18.2 0.00 0.00 0.00 33 1008.9
20260505184007 82 214 7.0 17.4 0.00 0.00 0.00 35 1009.2
20260505183506 83 135 7.0 16.5 0.00 0.00 0.00 33 1009.0
20260505183005 82 196 4.3 13.9 0.00 0.00 0.00 34 1009.0
20260505182503 82 188 3.5 19.1 0.00 0.00 0.00 34 1009.0
20260505182009 82 169 7.8 19.1 0.00 0.00 0.00 34 1009.0
20260505181515 82 202 4.3 15.6 0.00 0.00 0.00 34 1008.9
20260505181004 82 164 7.8 17.4 0.00 0.00 0.00 33 1009.1
20260505180508 82 189 8.7 20.0 0.00 0.00 0.00 33 1009.3
20260505180021 82 188 5.2 20.0 0.00 0.00 0.00 34 1009.2
20260505175504 82 204 2.6 13.0 0.00 0.00 0.00 37 1009.2
20260505175004 81 17 5.2 13.0 0.00 0.00 0.00 38 1009.4
20260505174508 81 210 4.3 13.0 0.00 0.00 0.00 37 1009.4
20260505174004 81 192 5.2 13.9 0.00 0.00 0.00 37 1009.5
20260505173505 81 160 5.2 14.8 0.00 0.00 0.00 38 1009.5
20260505173009 81 157 5.2 14.8 0.00 0.00 0.00 39 1009.6
20260505172506 81 168 2.6 10.4 0.00 0.00 0.00 40 1009.6
20260505172012 81 63 4.3 11.3 0.00 0.00 0.00 41 1009.7
20260505171515 81 290 2.6 11.3 0.00 0.00 0.00 40 1009.7
20260505171007 80 150 2.6 8.7 0.00 0.00 0.00 43 1010.0
20260505170505 80 155 2.6 9.6 0.00 0.00 0.00 41 1009.9
20260505170013 80 202 3.5 11.3 0.00 0.00 0.00 40 1010.0
20260505165504 80 180 2.6 11.3 0.00 0.00 0.00 42 1010.0
20260505165013 79 145 2.6 8.7 0.00 0.00 0.00 44 1010.0
20260505164525 79 117 1.7 8.7 0.00 0.00 0.00 43 1010.0
20260505164004 79 213 4.3 8.7 0.00 0.00 0.00 43 1010.2
20260505163504 79 288 2.6 10.4 0.00 0.00 0.00 45 1010.3
20260505163010 79 187 2.6 10.4 0.00 0.00 0.00 43 1010.2
20260505162504 78 155 1.7 7.8 0.00 0.00 0.00 44 1010.3
20260505162006 78 167 2.6 6.1 0.00 0.00 0.00 43 1010.4
20260505161510 78 157 1.7 10.4 0.00 0.00 0.00 44 1010.4
20260505161007 78 232 4.3 10.4 0.00 0.00 0.00 44 1010.6
20260505160502 77 144 2.6 7.8 0.00 0.00 0.00 45 1010.6
20260505153012 76 139 3.5 9.6 0.00 0.00 0.00 46 1011.0
20260505152508 75 120 3.5 9.6 0.00 0.00 0.00 48 1011.0
20260505152008 75 173 0.9 6.1 0.00 0.00 0.00 47 1011.1
20260505151507 75 315 0.9 8.7 0.00 0.00 0.00 49 1011.0
20260505151003 74 149 0.9 8.7 0.00 0.00 0.00 48 1010.9
20260505150504 74 154 1.7 8.7 0.00 0.00 0.00 49 1011.0
20260505140506 70 202 2.6 8.7 0.00 0.00 0.00 55 1011.5
20260505125007 64 195 2.6 7.8 0.00 0.00 0.00 63 1011.1
20260505124515 64 166 2.6 7.0 0.00 0.00 0.00 63 1011.0
20260505124009 63 160 0.9 7.0 0.00 0.00 0.00 66 1011.0
20260505123508 63 157 3.5 7.0 0.00 0.00 0.00 65 1011.0
20260505123016 62 206 0.9 7.8 0.00 0.00 0.00 68 1011.0
20260505122508 62 327 2.6 7.8 0.00 0.00 0.00 68 1011.0
20260505122016 61 209 2.6 8.7 0.00 0.00 0.00 70 1011.1
20260505121515 61 196 1.7 8.7 0.00 0.00 0.00 72 1011.2
20260505121010 60 199 0.9 7.0 0.00 0.00 0.00 73 1011.4
20260505120513 60 193 1.7 6.1 0.00 0.00 0.00 73 1011.4
20260505120026 59 184 1.7 5.2 0.00 0.00 0.00 74 1011.4
20260505115507 59 203 0.9 5.2 0.00 0.00 0.00 75 1011.3
20260505115011 58 172 0.0 5.2 0.00 0.00 0.00 76 1011.3
20260505114508 58 171 0.9 5.2 0.00 0.00 0.00 76 1011.2
20260505114008 58 146 0.0 5.2 0.00 0.00 0.00 75 1011.3
20260505113502 58 151 0.9 4.3 0.00 0.00 0.00 76 1011.2
20260505113007 58 151 0.0 4.3 0.00 0.00 0.00 75 1011.0
20260505112507 58 165 0.0 4.3 0.00 0.00 0.00 75 1011.0
20260505112002 58 165 1.7 4.3 0.00 0.00 0.00 76 1011.0
20260505111507 58 206 0.0 3.5 0.00 0.00 0.00 74 1010.8
20260505111004 58 206 0.0 7.0 0.00 0.00 0.00 73 1010.8
20260505110503 59 206 0.9 7.0 0.00 0.00 0.00 71 1011.2
20260505102004 57 169 0.9 3.5 0.00 0.00 0.00 70 1011.2
20260505101511 57 169 0.0 3.5 0.00 0.00 0.00 70 1011.0
20260505101007 57 167 0.0 4.3 0.00 0.00 0.00 70 1010.9
20260505100504 57 167 0.0 4.3 0.00 0.00 0.00 70 1010.8
20260505100009 57 173 0.9 4.3 0.00 0.00 0.00 70 1010.9
20260505095502 57 121 0.9 7.8 0.00 0.00 0.00 70 1010.8
20260505095004 57 170 2.6 7.8 0.00 0.00 0.00 70 1010.8
20260505094507 57 185 0.0 3.5 0.00 0.00 0.00 71 1010.7
20260505094006 57 183 0.0 2.6 0.00 0.00 0.00 71 1010.6
20260505093505 56 182 0.9 2.6 0.00 0.00 0.00 71 1010.5
20260505093012 56 188 0.0 3.5 0.00 0.00 0.00 71 1010.5
20260505092503 57 185 0.0 3.5 0.00 0.00 0.00 71 1010.4
20260505092010 57 188 0.0 3.5 0.00 0.00 0.00 71 1010.5
20260505091517 56 180 1.7 3.5 0.00 0.00 0.00 71 1010.4
20260505091003 57 190 0.0 3.5 0.00 0.00 0.00 71 1010.4
20260505090508 57 187 0.9 3.5 0.00 0.00 0.00 70 1010.4
20260505090016 57 184 0.9 4.3 0.00 0.00 0.00 70 1010.4
20260505085507 57 185 0.9 4.3 0.00 0.00 0.00 70 1010.3
20260505085003 57 188 1.7 7.0 0.00 0.00 0.00 70 1010.3
20260505084004 57 200 1.7 4.3 0.00 0.00 0.00 69 1010.4
20260505083502 57 189 0.0 4.3 0.00 0.00 0.00 69 1010.4
20260505083013 58 189 1.7 4.3 0.00 0.00 0.00 69 1010.4
20260505082507 58 175 0.0 5.2 0.00 0.00 0.00 68 1010.4
20260505082006 58 173 1.7 5.2 0.00 0.00 0.00 68 1010.4
20260505081509 58 184 0.9 4.3 0.00 0.00 0.00 68 1010.4
20260505081008 58 199 0.9 4.3 0.00 0.00 0.00 68 1010.4
20260505080507 58 167 1.7 5.2 0.00 0.00 0.00 68 1010.4
20260505080021 58 184 0.9 5.2 0.00 0.00 0.00 68 1010.5
20260505075504 58 143 0.0 3.5 0.00 0.00 0.00 68 1010.4
20260505075009 58 140 0.0 4.3 0.00 0.00 0.00 68 1010.5
20260505074521 58 171 0.9 5.2 0.00 0.00 0.00 68 1010.4
20260505074004 58 148 0.9 4.3 0.00 0.00 0.00 68 1010.4
20260505073506 58 173 0.0 4.3 0.00 0.00 0.00 67 1010.3
20260505073010 58 145 0.0 4.3 0.00 0.00 0.00 67 1010.3
20260505072505 58 144 0.0 5.2 0.00 0.00 0.00 67 1010.3
20260505072003 58 142 1.7 5.2 0.00 0.00 0.00 67 1010.3
20260505071523 58 171 0.0 3.5 0.00 0.00 0.00 67 1010.3
20260505071006 58 171 0.0 5.2 0.00 0.00 0.00 66 1010.3
20260505070503 58 171 0.9 5.2 0.00 0.00 0.00 66 1010.2
20260505070016 58 178 0.0 4.3 0.00 0.00 0.00 66 1010.3
20260505065507 58 177 0.0 3.5 0.00 0.00 0.00 66 1010.3
20260505065009 58 182 0.0 3.5 0.00 0.00 0.00 66 1010.3
20260505064519 58 144 0.0 4.3 0.00 0.00 0.00 66 1010.3
20260505064007 58 127 0.0 4.3 0.00 0.00 0.00 66 1010.2
20260505063506 58 144 0.9 3.5 0.00 0.00 0.00 66 1010.3
20260505063013 58 146 0.0 0.9 0.00 0.00 0.00 65 1010.4
20260505062507 58 146 0.0 1.7 0.00 0.00 0.00 64 1010.4
20260505062010 58 146 0.0 1.7 0.00 0.00 0.00 64 1010.5
20260505061511 59 146 0.0 2.6 0.00 0.00 0.00 64 1010.5
20260505061003 59 146 0.0 2.6 0.00 0.00 0.00 64 1010.5
20260505060509 58 145 0.0 2.6 0.00 0.00 0.00 64 1010.6
20260505060014 58 145 0.0 4.3 0.00 0.00 0.00 64 1010.6
20260505055508 58 144 0.9 4.3 0.00 0.00 0.00 65 1010.6
20260505055007 57 138 0.0 0.9 0.00 0.00 0.00 65 1010.6
20260505054527 57 138 0.0 0.0 0.00 0.00 0.00 64 1010.6
20260505054013 58 138 0.0 0.0 0.00 0.00 0.00 64 1010.7
20260505053505 58 138 0.0 0.9 0.00 0.00 0.00 63 1010.7
20260505053024 58 138 0.0 0.9 0.00 0.00 0.00 63 1010.7
20260505052513 58 138 0.0 0.9 0.00 0.00 0.00 62 1010.8
20260505052015 58 138 0.0 0.9 0.00 0.00 0.00 61 1010.8
20260505051523 58 138 0.0 0.9 0.00 0.00 0.00 61 1010.9
20260505051011 58 138 0.0 0.0 0.00 0.00 0.00 60 1011.0
20260505050516 59 138 0.0 0.0 0.00 0.00 0.00 60 1011.0
20260505041504 61 150 0.0 4.3 0.00 0.00 0.00 54 1011.0
20260505041004 61 153 0.0 3.5 0.00 0.00 0.00 54 1011.1
20260505040504 61 155 0.9 3.5 0.00 0.00 0.00 54 1011.0
20260505040006 61 161 0.0 4.3 0.00 0.00 0.00 54 1011.1
20260505035505 62 161 0.0 4.3 0.00 0.00 0.00 54 1011.1
20260505035003 62 153 0.0 6.1 0.00 0.00 0.00 53 1011.1
20260505034515 62 163 0.0 6.1 0.00 0.00 0.00 53 1011.1
20260505034003 62 145 0.9 4.3 0.00 0.00 0.00 52 1011.1
20260505033504 62 151 0.0 5.2 0.00 0.00 0.00 52 1011.2
20260505033005 62 160 1.7 5.2 0.00 0.00 0.00 52 1011.2
20260505032503 62 155 0.9 4.3 0.00 0.00 0.00 52 1011.2
20260505032006 62 155 1.7 7.0 0.00 0.00 0.00 51 1011.2
20260505031502 62 159 0.9 7.0 0.00 0.00 0.00 51 1011.3
20260505031005 62 150 0.9 5.2 0.00 0.00 0.00 50 1011.3
20260505030503 63 159 0.9 6.1 0.00 0.00 0.00 50 1011.3
20260505030021 63 164 0.9 6.1 0.00 0.00 0.00 50 1011.4
20260505025507 63 271 0.0 5.2 0.00 0.00 0.00 49 1011.4
20260505025004 63 200 0.9 5.2 0.00 0.00 0.00 49 1011.3
20260505024507 63 153 0.0 4.3 0.00 0.00 0.00 48 1011.3
20260505024006 63 137 0.9 5.2 0.00 0.00 0.00 48 1011.3
20260505023505 63 109 0.9 5.2 0.00 0.00 0.00 47 1011.2
20260505023003 63 162 0.9 4.3 0.00 0.00 0.00 46 1011.3
20260505022504 63 157 0.0 1.7 0.00 0.00 0.00 46 1011.3
20260505022008 64 157 0.0 4.3 0.00 0.00 0.00 45 1011.3
20260505021504 64 157 0.0 4.3 0.00 0.00 0.00 44 1011.3
20260505021003 64 150 0.0 4.3 0.00 0.00 0.00 44 1011.4
20260505020503 64 152 0.9 4.3 0.00 0.00 0.00 44 1011.3
20260505020004 65 159 0.9 4.3 0.00 0.00 0.00 43 1011.3
20260505015503 65 142 0.0 2.6 0.00 0.00 0.00 43 1011.2
20260505015006 65 144 0.0 2.6 0.00 0.00 0.00 43 1011.2
20260505014508 65 192 0.0 4.3 0.00 0.00 0.00 42 1011.2
20260505014005 65 192 0.9 5.2 0.00 0.00 0.00 42 1011.2
20260505013502 65 167 0.9 5.2 0.00 0.00 0.00 42 1011.2
20260505013012 65 156 0.9 5.2 0.00 0.00 0.00 42 1011.1
20260505012509 65 165 0.0 7.0 0.00 0.00 0.00 42 1011.1
20260505012004 65 159 1.7 7.0 0.00 0.00 0.00 41 1011.0
20260505011511 66 159 0.0 4.3 0.00 0.00 0.00 41 1010.9
20260505011008 66 152 0.9 3.5 0.00 0.00 0.00 41 1010.8
20260505010511 66 149 0.0 3.5 0.00 0.00 0.00 41 1010.8
20260505010004 66 149 0.0 3.5 0.00 0.00 0.00 40 1010.7
20260505005503 66 171 0.0 3.5 0.00 0.00 0.00 40 1010.7
20260505005004 67 171 0.0 4.3 0.00 0.00 0.00 40 1010.6
20260505004504 67 171 0.0 4.3 0.00 0.00 0.00 40 1010.5
20260505004004 67 166 0.0 3.5 0.00 0.00 0.00 40 1010.6
20260505003513 67 165 1.7 4.3 0.00 0.00 0.00 39 1010.4
20260505003013 67 167 0.9 6.1 0.00 0.00 0.00 39 1010.4
20260505002504 67 199 1.7 6.1 0.00 0.00 0.00 39 1010.2
20260505002006 68 119 0.0 4.3 0.00 0.00 0.00 39 1010.2
20260505001518 68 173 0.0 4.3 0.00 0.00 0.00 38 1010.1
20260505001011 68 204 1.7 5.2 0.00 0.00 0.00 38 1010.0
20260505000503 68 184 1.7 5.2 0.00 0.00 0.00 39 1009.9
20260505000018 68 195 0.9 5.2 0.00 0.00 0.00 38 1009.8
20260504235507 69 150 0.0 5.2 0.00 0.00 0.00 38 1009.6
20260504235004 69 140 1.7 5.2 0.00 0.00 0.00 37 1009.6
20260504234508 69 163 1.7 5.2 0.00 0.00 0.00 37 1009.5
20260504234005 69 153 1.7 5.2 0.00 0.00 0.00 37 1009.4
20260504233503 69 211 1.7 5.2 0.00 0.00 0.00 37 1009.3
20260504233012 70 157 0.0 6.1 0.00 0.00 0.00 37 1009.2
20260504232507 70 190 0.9 8.7 0.00 0.00 0.00 36 1009.2
20260504232010 70 155 3.5 8.7 0.00 0.00 0.00 35 1009.1
20260504231506 70 201 2.6 7.0 0.00 0.00 0.00 35 1009.1
20260504231008 70 172 1.7 7.0 0.00 0.00 0.00 36 1009.1
20260504230508 70 161 1.7 7.8 0.00 0.00 0.00 34 1009.1
20260504230022 70 215 2.6 8.7 0.00 0.00 0.00 35 1009.0
20260504225503 71 169 3.5 8.7 0.00 0.00 0.00 34 1009.1
20260504225011 71 173 2.6 6.1 0.00 0.00 0.00 35 1009.0
20260504224523 71 227 2.6 5.2 0.00 0.00 0.00 35 1009.0